EW9154 Weather Reports


time (UTC)temp
C
wind
direction
speed
KPH
gust
KPH
rain 1hr
cm
rain 24hr
cm
rain mn
cm
humidity
%
barometer
mb
20260503005545 17 236 1.6 17.7 0.00 0.00 0.00 34 1024.1
20260503005006 17 229 1.6 17.7 0.00 0.00 0.00 35 1024.2
20260503004437 17 203 1.6 19.3 0.00 0.00 0.00 35 1024.3
20260503003914 17 223 0.0 19.3 0.00 0.00 0.00 34 1024.4
20260503003348 17 223 0.0 3.2 0.00 0.00 0.00 36 1024.4
20260503002823 17 242 0.0 0.0 0.00 0.00 0.00 36 1024.4
20260503002304 17 267 0.0 6.4 0.00 0.00 0.00 36 1024.4
20260503001800 17 321 1.6 20.9 0.00 0.00 0.00 36 1024.5
20260503001235 17 210 1.6 20.9 0.00 0.00 0.00 35 1024.3
20260503000705 17 196 1.6 14.5 0.00 0.00 0.00 36 1024.4
20260503000204 17 229 0.0 14.5 0.00 0.00 0.00 35 1024.8
20260502235638 18 215 0.0 0.0 0.00 0.00 0.00 35 1024.5
20260502235142 18 219 0.0 4.8 0.00 0.00 0.00 34 1024.4
20260502234613 18 238 0.0 24.1 0.00 0.00 0.00 34 1024.4
20260502234113 18 324 3.2 24.1 0.00 0.00 0.00 33 1024.4
20260502233544 18 229 1.6 30.6 0.00 0.00 0.00 34 1024.5
20260502233043 18 226 0.0 30.6 0.00 0.00 0.00 32 1024.5
20260502232540 18 233 0.0 16.1 0.00 0.00 0.00 32 1024.4
20260502232044 18 227 1.6 16.1 0.00 0.00 0.00 32 1024.4
20260502231540 18 225 1.6 17.7 0.00 0.00 0.00 31 1024.5
20260502231038 18 202 1.6 17.7 0.00 0.00 0.00 30 1024.6
20260502230510 18 215 1.6 19.3 0.00 0.00 0.00 31 1024.6
20260502230008 18 237 1.6 19.3 0.00 0.00 0.00 31 1024.6
20260502225452 18 209 0.0 3.2 0.00 0.00 0.00 30 1024.6
20260502224954 18 235 0.0 6.4 0.00 0.00 0.00 30 1024.8
20260502224425 19 221 0.0 8.0 0.00 0.00 0.00 30 1024.8
20260502223923 19 186 0.0 8.0 0.00 0.00 0.00 30 1024.9
20260502223420 19 216 0.0 14.5 0.00 0.00 0.00 30 1024.9
20260502222918 19 203 0.0 14.5 0.00 0.00 0.00 29 1025.0
20260502222352 19 215 1.6 14.5 0.00 0.00 0.00 29 1025.0
20260502222111 20 223 1.6 14.5 0.00 0.00 0.00 30 1025.0
20260502221338 20 223 3.2 16.1 0.00 0.00 0.00 29 1025.1
20260502220833 20 225 1.6 16.1 0.00 0.00 0.00 29 1025.2
20260502220332 20 172 1.6 25.7 0.00 0.00 0.00 30 1025.2
20260502215817 20 221 3.2 25.7 0.00 0.00 0.00 29 1025.2
20260502215322 20 232 3.2 20.9 0.00 0.00 0.00 29 1025.4
20260502214802 20 223 1.6 20.9 0.00 0.00 0.00 28 1025.4
20260502214256 20 175 1.6 20.9 0.00 0.00 0.00 27 1025.4
20260502213727 20 223 1.6 14.5 0.00 0.00 0.00 28 1025.6
20260502213239 20 250 1.6 20.9 0.00 0.00 0.00 28 1025.7
20260502212721 20 239 1.6 25.7 0.00 0.00 0.00 29 1025.8
20260502212220 20 206 4.8 25.7 0.00 0.00 0.00 28 1025.8
20260502211659 19 222 6.4 24.1 0.00 0.00 0.00 29 1026.0
20260502211117 20 232 3.2 22.5 0.00 0.00 0.00 28 1026.0
20260502210617 20 218 4.8 20.9 0.00 0.00 0.00 28 1026.2
20260502210047 19 231 6.4 37.0 0.00 0.00 0.00 30 1026.2
20260502205815 19 221 6.4 37.0 0.00 0.00 0.00 31 1026.2
20260502205019 18 209 1.6 22.5 0.00 0.00 0.00 30 1026.4
20260502204521 18 230 1.6 16.1 0.00 0.00 0.00 30 1026.5
20260502204017 18 221 3.2 16.1 0.00 0.00 0.00 29 1026.6
20260502203737 19 231 3.2 19.3 0.00 0.00 0.00 29 1026.7
20260502203004 19 184 3.2 20.9 0.00 0.00 0.00 29 1026.8
20260502202739 19 197 4.8 20.9 0.00 0.00 0.00 28 1026.8
20260502201942 19 260 3.2 17.7 0.00 0.00 0.00 28 1026.9
20260502201425 18 204 3.2 16.1 0.00 0.00 0.00 30 1027.0
20260502200928 18 220 3.2 19.3 0.00 0.00 0.00 30 1027.3
20260502200627 18 275 3.2 35.4 0.00 0.00 0.00 29 1027.4
20260502200125 18 221 3.2 29.0 0.00 0.00 0.00 30 1027.5
20260502195352 18 235 4.8 24.1 0.00 0.00 0.00 31 1027.6
20260502194823 18 234 4.8 24.1 0.00 0.00 0.00 29 1027.8
20260502194318 18 233 4.8 24.1 0.00 0.00 0.00 29 1027.8
20260502193816 18 216 1.6 22.5 0.00 0.00 0.00 28 1028.0
20260502193252 18 223 1.6 19.3 0.00 0.00 0.00 30 1028.1
20260502192747 18 198 3.2 22.5 0.00 0.00 0.00 30 1028.1
20260502192248 18 202 4.8 22.5 0.00 0.00 0.00 29 1028.2
20260502191722 18 227 1.6 16.1 0.00 0.00 0.00 30 1028.3
20260502191206 17 254 1.6 14.5 0.00 0.00 0.00 30 1028.4
20260502190622 17 216 1.6 14.5 0.00 0.00 0.00 29 1028.6
20260502190327 17 222 1.6 16.1 0.00 0.00 0.00 29 1028.7
20260502185805 17 246 1.6 16.1 0.00 0.00 0.00 30 1028.8
20260502185649 17 214 3.2 17.7 0.00 0.00 0.00 31 1028.7
20260502184510 17 230 4.8 27.4 0.00 0.00 0.00 31 1029.0
20260502183941 17 265 1.6 22.5 0.00 0.00 0.00 30 1029.1
20260502183647 17 211 1.6 22.5 0.00 0.00 0.00 32 1029.2
20260502182914 16 273 6.4 40.2 0.00 0.00 0.00 31 1029.2
20260502182345 16 261 4.8 40.2 0.00 0.00 0.00 32 1029.4
20260502181835 16 210 1.6 16.1 0.00 0.00 0.00 31 1029.4
20260502181341 16 215 1.6 14.5 0.00 0.00 0.00 30 1029.7
20260502181335 16 205 1.6 14.5 0.00 0.00 0.00 31 1029.6
20260502180326 16 223 1.6 12.9 0.00 0.00 0.00 30 1029.8
20260502170149 15 205 3.2 17.7 0.00 0.00 0.00 33 1030.8
20260502170144 15 214 3.2 19.3 0.00 0.00 0.00 32 1030.7
20260502164103 14 196 1.6 17.7 0.00 0.00 0.00 34 1031.0
20260502163816 13 236 1.6 17.7 0.00 0.00 0.00 36 1031.0
20260502163242 13 214 3.2 19.3 0.00 0.00 0.00 35 1031.1
20260502162443 13 212 3.2 19.3 0.00 0.00 0.00 35 1031.2
20260502161924 13 213 1.6 14.5 0.00 0.00 0.00 37 1031.2
20260502161406 13 182 1.6 16.1 0.00 0.00 0.00 36 1031.3
20260502160903 13 225 1.6 16.1 0.00 0.00 0.00 37 1031.4
20260502160406 13 235 3.2 16.1 0.00 0.00 0.00 37 1031.4
20260502152325 12 215 1.6 17.7 0.00 0.00 0.00 41 1031.7
20260502151822 12 233 1.6 17.7 0.00 0.00 0.00 42 1031.8
20260502151256 12 248 0.0 8.0 0.00 0.00 0.00 43 1031.8
20260502151116 11 219 0.0 9.7 0.00 0.00 0.00 46 1032.1
20260502150754 12 239 1.6 11.3 0.00 0.00 0.00 44 1032.0
20260502150500 11 240 1.6 11.3 0.00 0.00 0.00 45 1032.1
20260502130249 5 219 0.0 3.2 0.00 0.00 0.00 62 1032.4
20260502123635 4 221 0.0 0.0 0.00 0.00 0.00 68 1032.4
20260502123133 4 216 0.0 3.2 0.00 0.00 0.00 68 1032.4
20260502122616 3 215 0.0 11.3 0.00 0.00 0.00 68 1032.3
20260502122119 3 212 0.0 11.3 0.00 0.00 0.00 68 1032.3
20260502121554 3 212 0.0 11.3 0.00 0.00 0.00 68 1032.3
20260502121049 3 223 0.0 11.3 0.00 0.00 0.00 69 1032.4
20260502120548 3 223 0.0 1.6 0.00 0.00 0.00 69 1032.4
20260502115503 3 226 0.0 0.0 0.00 0.00 0.00 70 1032.3
20260502115007 3 225 0.0 0.0 0.00 0.00 0.00 70 1032.2
20260502114438 3 227 0.0 0.0 0.00 0.00 0.00 69 1032.2
20260502113937 3 227 0.0 0.0 0.00 0.00 0.00 69 1032.1
20260502113411 3 227 0.0 0.0 0.00 0.00 0.00 69 1032.2
20260502112845 3 227 0.0 0.0 0.00 0.00 0.00 69 1032.1
20260502112327 3 227 0.0 0.0 0.00 0.00 0.00 68 1032.1
20260502111831 3 227 0.0 0.0 0.00 0.00 0.00 68 1032.1
20260502111302 3 227 0.0 0.0 0.00 0.00 0.00 67 1032.0
20260502110800 3 227 0.0 0.0 0.00 0.00 0.00 67 1032.1
20260502110236 3 227 0.0 0.0 0.00 0.00 0.00 67 1032.1
20260502105722 3 229 0.0 0.0 0.00 0.00 0.00 67 1032.1
20260502105222 3 214 0.0 0.0 0.00 0.00 0.00 66 1032.1
20260502104712 3 213 0.0 0.0 0.00 0.00 0.00 66 1032.1
20260502104211 3 212 0.0 0.0 0.00 0.00 0.00 66 1032.2
20260502103642 3 209 0.0 6.4 0.00 0.00 0.00 66 1032.1
20260502103140 3 215 0.0 6.4 0.00 0.00 0.00 66 1032.1
20260502102619 3 214 0.0 4.8 0.00 0.00 0.00 65 1032.1
20260502102119 3 203 0.0 4.8 0.00 0.00 0.00 65 1032.1
20260502101619 3 202 0.0 4.8 0.00 0.00 0.00 65 1032.1
20260502101114 3 202 0.0 4.8 0.00 0.00 0.00 65 1032.1
20260502100840 3 213 0.0 0.0 0.00 0.00 0.00 64 1032.1
20260502100309 3 216 0.0 1.6 0.00 0.00 0.00 64 1032.0
20260502091359 4 209 0.0 1.6 0.00 0.00 0.00 62 1032.0
20260502090857 4 207 0.0 1.6 0.00 0.00 0.00 62 1031.8
20260502090352 4 207 0.0 0.0 0.00 0.00 0.00 62 1032.0
20260502071410 5 235 0.0 0.0 0.00 0.00 0.00 55 1032.3
20260502070902 5 235 0.0 0.0 0.00 0.00 0.00 55 1032.3
20260502070402 5 235 0.0 0.0 0.00 0.00 0.00 55 1032.3
20260502065844 5 235 0.0 0.0 0.00 0.00 0.00 55 1032.3
20260502065343 5 235 0.0 0.0 0.00 0.00 0.00 55 1032.4
20260502064847 5 238 0.0 0.0 0.00 0.00 0.00 54 1032.4
20260502064843 5 238 0.0 0.0 0.00 0.00 0.00 54 1032.4
20260502063839 5 238 0.0 3.2 0.00 0.00 0.00 54 1032.4
20260502063610 5 238 0.0 3.2 0.00 0.00 0.00 54 1032.4
20260502062838 5 250 0.0 0.0 0.00 0.00 0.00 54 1032.4
20260502062610 5 250 0.0 4.8 0.00 0.00 0.00 54 1032.5
20260502061821 5 250 0.0 4.8 0.00 0.00 0.00 53 1032.5
20260502061322 5 250 0.0 0.0 0.00 0.00 0.00 53 1032.4
20260502060812 5 250 0.0 0.0 0.00 0.00 0.00 53 1032.5
20260502060543 5 250 0.0 0.0 0.00 0.00 0.00 53 1032.5
20260502055813 6 250 0.0 0.0 0.00 0.00 0.00 53 1032.5
20260502055250 6 250 0.0 0.0 0.00 0.00 0.00 53 1032.5
20260502054726 6 250 0.0 0.0 0.00 0.00 0.00 53 1032.5
20260502054228 6 250 0.0 0.0 0.00 0.00 0.00 53 1032.5
20260502053721 6 250 0.0 0.0 0.00 0.00 0.00 53 1032.4
20260502053222 6 250 0.0 0.0 0.00 0.00 0.00 53 1032.5
20260502052707 6 250 0.0 0.0 0.00 0.00 0.00 53 1032.4
20260502052204 6 250 0.0 0.0 0.00 0.00 0.00 52 1032.5
20260502051704 6 250 0.0 0.0 0.00 0.00 0.00 52 1032.5
20260502051157 6 250 0.0 0.0 0.00 0.00 0.00 51 1032.4
20260502050652 6 250 0.0 0.0 0.00 0.00 0.00 51 1032.4
20260502050150 6 250 0.0 0.0 0.00 0.00 0.00 51 1032.4
20260502045626 6 250 0.0 0.0 0.00 0.00 0.00 50 1032.4
20260502045111 6 250 0.0 0.0 0.00 0.00 0.00 50 1032.4
20260502044551 6 250 0.0 0.0 0.00 0.00 0.00 50 1032.3
20260502044049 6 250 0.0 0.0 0.00 0.00 0.00 49 1032.4
20260502043552 6 250 0.0 0.0 0.00 0.00 0.00 50 1032.4
20260502043014 6 250 0.0 0.0 0.00 0.00 0.00 49 1032.4
20260502042458 6 250 0.0 0.0 0.00 0.00 0.00 49 1032.4
20260502042232 6 250 0.0 0.0 0.00 0.00 0.00 49 1032.3
20260502041956 6 250 0.0 0.0 0.00 0.00 0.00 49 1032.4
20260502040955 6 250 0.0 0.0 0.00 0.00 0.00 49 1032.4
20260502040441 7 250 0.0 0.0 0.00 0.00 0.00 49 1032.4
20260502040214 7 250 0.0 0.0 0.00 0.00 0.00 48 1032.4
20260502035434 7 250 0.0 0.0 0.00 0.00 0.00 48 1032.4
20260502034935 7 250 0.0 0.0 0.00 0.00 0.00 48 1032.4
20260502034431 7 250 0.0 0.0 0.00 0.00 0.00 47 1032.4
20260502033929 7 250 0.0 0.0 0.00 0.00 0.00 47 1032.4
20260502033409 7 250 0.0 0.0 0.00 0.00 0.00 45 1032.5
20260502032856 7 250 0.0 0.0 0.00 0.00 0.00 45 1032.5
20260502032400 7 250 0.0 0.0 0.00 0.00 0.00 45 1032.5
20260502032103 7 250 0.0 0.0 0.00 0.00 0.00 44 1032.5
20260502031330 7 250 0.0 0.0 0.00 0.00 0.00 44 1032.5
20260502030829 8 250 0.0 0.0 0.00 0.00 0.00 44 1032.6
20260502030311 8 250 0.0 0.0 0.00 0.00 0.00 44 1032.6
20260502025753 8 250 0.0 0.0 0.00 0.00 0.00 44 1032.5
20260502025232 8 250 0.0 0.0 0.00 0.00 0.00 43 1032.5
20260502024733 8 250 0.0 0.0 0.00 0.00 0.00 43 1032.4
20260502024206 8 250 0.0 0.0 0.00 0.00 0.00 42 1032.5
20260502023924 8 250 0.0 0.0 0.00 0.00 0.00 42 1032.4
20260502023143 8 250 0.0 0.0 0.00 0.00 0.00 41 1032.4
20260502022644 8 250 0.0 0.0 0.00 0.00 0.00 40 1032.4
20260502022144 8 250 0.0 0.0 0.00 0.00 0.00 41 1032.4
20260502021625 8 250 0.0 0.0 0.00 0.00 0.00 40 1032.3
20260502021123 8 250 0.0 0.0 0.00 0.00 0.00 39 1032.4
20260502020603 9 250 0.0 0.0 0.00 0.00 0.00 38 1032.3
20260502020559 9 250 0.0 0.0 0.00 0.00 0.00 39 1032.3
20260502015552 9 250 0.0 0.0 0.00 0.00 0.00 38 1032.2
20260502015325 9 250 0.0 0.0 0.00 0.00 0.00 38 1032.2
20260502014525 9 250 0.0 0.0 0.00 0.00 0.00 38 1032.1
20260502014028 9 250 0.0 0.0 0.00 0.00 0.00 39 1032.0
20260502013506 10 250 0.0 0.0 0.00 0.00 0.00 38 1032.0
20260502013006 10 250 0.0 0.0 0.00 0.00 0.00 38 1031.8
20260502012503 10 250 0.0 0.0 0.00 0.00 0.00 38 1031.8
20260502011933 10 250 0.0 0.0 0.00 0.00 0.00 37 1031.8
20260502011435 10 250 0.0 0.0 0.00 0.00 0.00 37 1031.8
20260502010914 10 250 0.0 0.0 0.00 0.00 0.00 36 1031.7
20260502010335 10 250 0.0 0.0 0.00 0.00 0.00 36 1031.7